IU7LMH-13 Weather Reports


time (UTC)temp
C
wind
direction
speed
KPH
gust
KPH
rain 1hr
cm
rain 24hr
cm
rain mn
cm
humidity
%
barometer
mb
20260504021138 9 0 1.6 3.2 0.00 0.00 0.00 83 1018.3
20260504020937 9 338 1.6 3.2 0.00 0.00 0.00 82 1018.3
20260504020738 9 0 1.6 3.2 0.00 0.00 0.00 82 1018.0
20260504020338 9 338 1.6 3.2 0.00 0.00 0.00 82 1018.3
20260504020137 9 315 1.6 3.2 0.00 0.00 0.00 81 1018.1
20260504015938 10 338 1.6 3.2 0.00 0.00 0.00 81 1018.2
20260504015738 10 0 1.6 3.2 0.00 0.00 0.00 81 1018.3
20260504015543 10 338 1.6 3.2 0.00 0.00 0.00 81 1018.2
20260504015337 10 338 1.6 3.2 0.00 0.00 0.00 80 1017.9
20260504015136 10 0 0.0 3.2 0.00 0.00 0.00 80 1018.0
20260504014737 11 22 1.6 3.2 0.00 0.00 0.00 79 1018.0
20260504014544 11 0 1.6 3.2 0.00 0.00 0.00 79 1018.0
20260504014338 11 0 0.0 3.2 0.00 0.00 0.00 79 1018.1
20260504014137 11 0 0.0 3.2 0.00 0.00 0.00 79 1018.1
20260504013737 11 0 1.6 3.2 0.00 0.00 0.00 79 1018.0
20260504013541 11 0 0.0 0.0 0.00 0.00 0.00 79 1017.9
20260504013337 11 0 1.6 3.2 0.00 0.00 0.00 79 1017.9
20260504013136 11 22 1.6 3.2 0.00 0.00 0.00 79 1017.9
20260504012938 11 22 1.6 3.2 0.00 0.00 0.00 79 1018.1
20260504012543 11 22 0.0 0.0 0.00 0.00 0.00 79 1017.9
20260504012337 11 22 0.0 3.2 0.00 0.00 0.00 79 1017.9
20260504012136 11 338 0.0 0.0 0.00 0.00 0.00 79 1017.9
20260504011938 11 338 0.0 0.0 0.00 0.00 0.00 79 1018.0
20260504011737 11 0 0.0 3.2 0.00 0.00 0.00 78 1018.0
20260504011544 11 315 0.0 0.0 0.00 0.00 0.00 78 1017.9
20260504011337 11 315 0.0 0.0 0.00 0.00 0.00 78 1017.9
20260504010938 11 315 0.0 0.0 0.00 0.00 0.00 78 1017.8
20260504010738 11 315 0.0 0.0 0.00 0.00 0.00 77 1017.7
20260504010540 11 315 0.0 0.0 0.00 0.00 0.00 77 1017.9
20260504010337 11 0 0.0 0.0 0.00 0.00 0.00 77 1018.1
20260504010137 11 0 0.0 0.0 0.00 0.00 0.00 77 1018.0
20260504005938 11 0 0.0 0.0 0.00 0.00 0.00 77 1017.9
20260504005738 11 0 1.6 3.2 0.00 0.00 0.00 77 1017.9
20260504005542 12 315 0.0 0.0 0.00 0.00 0.00 77 1018.1
20260504005338 12 315 0.0 0.0 0.00 0.00 0.00 77 1017.9
20260504005136 12 315 0.0 0.0 0.00 0.00 0.00 77 1017.9
20260504004938 12 315 0.0 0.0 0.00 0.00 0.00 77 1018.0
20260504004737 12 315 0.0 0.0 0.00 0.00 0.00 76 1018.0
20260504004545 12 315 0.0 0.0 0.00 0.00 0.00 76 1018.1
20260504004337 12 315 0.0 0.0 0.00 0.00 0.00 75 1017.9
20260504004137 12 315 0.0 0.0 0.00 0.00 0.00 74 1018.1
20260504003938 12 315 0.0 0.0 0.00 0.00 0.00 73 1017.9
20260504003737 12 315 0.0 0.0 0.00 0.00 0.00 73 1017.9
20260504003542 12 315 0.0 0.0 0.00 0.00 0.00 73 1017.9
20260504003136 12 315 0.0 0.0 0.00 0.00 0.00 73 1017.9
20260504002937 12 315 0.0 0.0 0.00 0.00 0.00 73 1017.9
20260504002738 13 292 0.0 3.2 0.00 0.00 0.00 73 1018.0
20260504002543 13 315 0.0 3.2 0.00 0.00 0.00 73 1018.0
20260504002337 13 315 1.6 3.2 0.00 0.00 0.00 73 1017.9
20260504002138 13 315 3.2 6.4 0.00 0.00 0.00 73 1017.9
20260504001938 13 315 1.6 3.2 0.00 0.00 0.00 73 1017.8
20260504001738 12 292 1.6 3.2 0.00 0.00 0.00 73 1018.0
20260504001543 12 270 3.2 3.2 0.00 0.00 0.00 73 1018.0
20260504001336 12 292 3.2 6.4 0.00 0.00 0.00 73 1018.1
20260504001137 13 315 1.6 3.2 0.00 0.00 0.00 72 1018.0
20260504000937 13 292 1.6 3.2 0.00 0.00 0.00 72 1018.0
20260504000737 13 292 4.8 6.4 0.00 0.00 0.00 72 1018.1
20260504000540 13 292 4.8 6.4 0.00 0.00 0.00 72 1018.0
20260504000336 13 292 4.8 6.4 0.00 0.00 0.00 72 1018.1
20260504000137 13 292 4.8 6.4 0.00 0.00 0.00 72 1018.1
20260503235936 13 292 3.2 3.2 0.00 0.00 0.00 71 1018.1
20260503235736 13 315 0.0 3.2 0.00 0.00 0.00 71 1018.0
20260503235543 13 292 0.0 0.0 0.00 0.00 0.00 70 1018.1
20260503235336 13 292 0.0 3.2 0.00 0.00 0.00 70 1018.1
20260503235137 13 292 0.0 3.2 0.00 0.00 0.00 70 1018.2
20260503234937 13 292 0.0 3.2 0.00 0.00 0.00 69 1018.1
20260503234737 13 292 3.2 3.2 0.00 0.00 0.00 69 1018.1
20260503234543 13 315 6.4 9.7 0.00 0.00 0.00 69 1018.1
20260503234337 13 292 4.8 6.4 0.00 0.00 0.00 70 1018.1
20260503233736 13 292 6.4 9.7 0.00 0.00 0.00 72 1018.0
20260503233540 13 292 6.4 6.4 0.00 0.00 0.00 72 1018.0
20260503233337 13 292 4.8 6.4 0.00 0.00 0.00 72 1018.1
20260503233136 13 292 6.4 9.7 0.00 0.00 0.00 72 1018.1
20260503232936 13 292 4.8 6.4 0.00 0.00 0.00 72 1018.1
20260503232736 13 292 4.8 6.4 0.00 0.00 0.00 72 1018.1
20260503232542 13 292 3.2 6.4 0.00 0.00 0.00 72 1018.2
20260503232336 13 270 4.8 6.4 0.00 0.00 0.00 72 1018.1
20260503232136 13 270 6.4 6.4 0.00 0.00 0.00 71 1017.9
20260503231938 13 270 6.4 9.7 0.00 0.00 0.00 71 1018.0
20260503231543 13 270 9.7 12.9 0.00 0.00 0.00 71 1018.1
20260503231335 13 270 8.0 12.9 0.00 0.00 0.00 70 1018.0
20260503231136 13 292 8.0 12.9 0.00 0.00 0.00 70 1018.1
20260503230936 13 292 8.0 12.9 0.00 0.00 0.00 70 1018.2
20260503230738 13 292 9.7 11.3 0.00 0.00 0.00 69 1018.1
20260503230540 13 292 6.4 11.3 0.00 0.00 0.00 70 1018.0
20260503230337 13 292 4.8 6.4 0.00 0.00 0.00 70 1018.0
20260503230136 13 292 6.4 9.7 0.00 0.00 0.00 69 1018.0
20260503225937 13 270 6.4 9.7 0.00 0.00 0.00 69 1018.1
20260503225737 14 270 6.4 9.7 0.00 0.00 0.00 68 1018.3
20260503225544 14 292 8.0 9.7 0.00 0.00 0.00 68 1018.1
20260503225335 14 292 6.4 9.7 0.00 0.00 0.00 68 1018.0
20260503224936 14 270 6.4 6.4 0.00 0.00 0.00 67 1018.2
20260503224737 14 270 6.4 9.7 0.00 0.00 0.00 67 1018.0
20260503224543 14 292 6.4 11.3 0.00 0.00 0.00 67 1018.1
20260503224136 14 270 6.4 9.7 0.00 0.00 0.00 67 1018.2
20260503223937 14 248 6.4 9.7 0.00 0.00 0.00 67 1018.3
20260503223736 14 270 6.4 11.3 0.00 0.00 0.00 67 1018.0
20260503223335 14 292 6.4 11.3 0.00 0.00 0.00 67 1018.2
20260503223138 14 270 6.4 9.7 0.00 0.00 0.00 68 1018.1
20260503222737 14 270 6.4 9.7 0.00 0.00 0.00 68 1018.1
20260503222542 14 292 6.4 9.7 0.00 0.00 0.00 68 1018.0
20260503222336 14 270 6.4 9.7 0.00 0.00 0.00 68 1018.2
20260503222136 14 270 4.8 9.7 0.00 0.00 0.00 68 1018.1
20260503221936 14 292 6.4 9.7 0.00 0.00 0.00 68 1018.1
20260503221543 14 270 6.4 11.3 0.00 0.00 0.00 68 1018.0
20260503221341 14 292 6.4 9.7 0.00 0.00 0.00 68 1018.0
20260503221138 14 292 4.8 6.4 0.00 0.00 0.00 67 1018.0
20260503220939 14 292 6.4 9.7 0.00 0.00 0.00 67 1018.0
20260503220740 15 292 6.4 11.3 0.00 0.00 0.00 66 1017.9
20260503220540 15 270 6.4 11.3 0.00 0.00 0.00 66 1017.9
20260503220144 15 270 8.0 11.3 0.00 0.00 0.00 65 1017.9
20260503215937 15 270 6.4 9.7 0.00 0.00 0.00 64 1018.0
20260503215736 15 248 8.0 11.3 0.00 0.00 0.00 64 1018.0
20260503215544 15 270 6.4 11.3 0.00 0.00 0.00 64 1017.9
20260503215337 15 292 6.4 9.7 0.00 0.00 0.00 64 1017.9
20260503215137 15 248 6.4 12.9 0.00 0.00 0.00 64 1017.9
20260503214938 15 315 9.7 12.9 0.00 0.00 0.00 64 1018.0
20260503214738 15 270 8.0 11.3 0.00 0.00 0.00 64 1017.9
20260503214544 15 292 6.4 11.3 0.00 0.00 0.00 64 1017.8
20260503214137 15 292 8.0 11.3 0.00 0.00 0.00 64 1017.8
20260503213938 15 292 6.4 12.9 0.00 0.00 0.00 64 1017.9
20260503213736 15 292 6.4 11.3 0.00 0.00 0.00 64 1017.9
20260503213541 15 270 6.4 9.7 0.00 0.00 0.00 64 1017.9
20260503213337 15 270 6.4 9.7 0.00 0.00 0.00 64 1018.0
20260503213138 15 292 6.4 9.7 0.00 0.00 0.00 63 1018.0
20260503212937 15 270 6.4 9.7 0.00 0.00 0.00 63 1018.0
20260503212736 16 270 6.4 9.7 0.00 0.00 0.00 63 1018.0
20260503212543 16 270 6.4 9.7 0.00 0.00 0.00 62 1018.0
20260503212337 16 270 6.4 9.7 0.00 0.00 0.00 62 1017.7
20260503212137 16 270 6.4 9.7 0.00 0.00 0.00 62 1017.9
20260503211937 16 270 6.4 9.7 0.00 0.00 0.00 61 1018.0
20260503211738 16 270 8.0 14.5 0.00 0.00 0.00 61 1017.9
20260503211543 16 270 8.0 12.9 0.00 0.00 0.00 61 1017.7
20260503211337 16 292 12.9 17.7 0.00 0.00 0.00 61 1017.9
20260503211137 16 292 9.7 12.9 0.00 0.00 0.00 61 1017.8
20260503210938 16 270 9.7 14.5 0.00 0.00 0.00 61 1017.9
20260503210738 16 270 9.7 12.9 0.00 0.00 0.00 61 1017.8
20260503210545 16 292 6.4 12.9 0.00 0.00 0.00 62 1017.9
20260503210138 16 270 8.0 12.9 0.00 0.00 0.00 62 1017.9
20260503205938 16 270 8.0 12.9 0.00 0.00 0.00 62 1017.8
20260503205736 16 270 6.4 9.7 0.00 0.00 0.00 62 1017.8
20260503205543 16 270 6.4 12.9 0.00 0.00 0.00 62 1017.8
20260503205338 16 270 6.4 9.7 0.00 0.00 0.00 62 1017.9
20260503205137 16 270 9.7 14.5 0.00 0.00 0.00 62 1017.8
20260503204938 15 270 9.7 14.5 0.00 0.00 0.00 63 1017.7
20260503204738 15 248 8.0 12.9 0.00 0.00 0.00 65 1017.9
20260503204544 15 270 6.4 14.5 0.00 0.00 0.00 65 1017.8
20260503204338 15 248 6.4 9.7 0.00 0.00 0.00 66 1017.7
20260503204137 14 248 6.4 12.9 0.00 0.00 0.00 67 1017.8
20260503203937 14 270 4.8 6.4 0.00 0.00 0.00 69 1017.8
20260503203737 13 270 4.8 6.4 0.00 0.00 0.00 69 1017.9
20260503203541 13 270 4.8 6.4 0.00 0.00 0.00 70 1017.8
20260503203337 13 270 3.2 6.4 0.00 0.00 0.00 71 1017.7
20260503203137 13 248 3.2 6.4 0.00 0.00 0.00 72 1017.8
20260503202938 13 270 3.2 6.4 0.00 0.00 0.00 73 1017.8
20260503202543 13 270 3.2 3.2 0.00 0.00 0.00 75 1017.8
20260503202338 13 292 3.2 3.2 0.00 0.00 0.00 75 1017.9
20260503202138 13 270 3.2 6.4 0.00 0.00 0.00 76 1017.8
20260503201937 13 270 3.2 3.2 0.00 0.00 0.00 76 1017.9
20260503201738 13 292 3.2 3.2 0.00 0.00 0.00 76 1017.9
20260503201544 13 270 3.2 6.4 0.00 0.00 0.00 76 1017.8
20260503201336 13 270 3.2 3.2 0.00 0.00 0.00 76 1017.9
20260503201137 13 270 3.2 3.2 0.00 0.00 0.00 75 1018.0
20260503200940 13 270 3.2 6.4 0.00 0.00 0.00 75 1018.2
20260503200539 14 270 3.2 6.4 0.00 0.00 0.00 75 1017.9
20260503200337 14 270 3.2 6.4 0.00 0.00 0.00 75 1017.9
20260503200137 14 270 3.2 3.2 0.00 0.00 0.00 75 1017.7
20260503195937 14 270 3.2 3.2 0.00 0.00 0.00 74 1017.8
20260503195738 15 248 3.2 3.2 0.00 0.00 0.00 74 1017.9
20260503195545 15 270 3.2 3.2 0.00 0.00 0.00 74 1017.9
20260503195337 15 270 3.2 3.2 0.00 0.00 0.00 74 1017.9
20260503195137 15 270 3.2 3.2 0.00 0.00 0.00 73 1017.8
20260503194938 15 292 1.6 3.2 0.00 0.00 0.00 73 1017.9
20260503194340 15 248 1.6 3.2 0.00 0.00 0.00 72 1017.9
20260503194137 15 248 3.2 3.2 0.00 0.00 0.00 72 1018.0
20260503193736 15 270 1.6 3.2 0.00 0.00 0.00 72 1017.8
20260503193540 15 248 1.6 3.2 0.00 0.00 0.00 72 1017.9
20260503193337 15 248 1.6 3.2 0.00 0.00 0.00 72 1017.7
20260503193137 15 248 0.0 0.0 0.00 0.00 0.00 72 1017.6
20260503192939 15 270 0.0 0.0 0.00 0.00 0.00 72 1017.9
20260503192737 15 248 0.0 0.0 0.00 0.00 0.00 72 1017.6
20260503192544 15 248 0.0 0.0 0.00 0.00 0.00 72 1017.6
20260503191938 15 248 0.0 0.0 0.00 0.00 0.00 72 1017.5
20260503191738 15 248 0.0 0.0 0.00 0.00 0.00 72 1017.8
20260503191545 15 248 0.0 0.0 0.00 0.00 0.00 71 1017.6
20260503191338 15 248 0.0 3.2 0.00 0.00 0.00 71 1017.5
20260503190936 15 248 0.0 0.0 0.00 0.00 0.00 71 1017.4
20260503190737 15 248 0.0 0.0 0.00 0.00 0.00 71 1017.5
20260503190542 15 270 0.0 3.2 0.00 0.00 0.00 70 1017.5
20260503190338 15 270 1.6 3.2 0.00 0.00 0.00 70 1017.5
20260503190138 16 270 0.0 3.2 0.00 0.00 0.00 70 1017.5
20260503185938 16 270 3.2 3.2 0.00 0.00 0.00 69 1017.6
20260503185739 16 270 1.6 3.2 0.00 0.00 0.00 69 1017.7
20260503185544 16 248 1.6 3.2 0.00 0.00 0.00 68 1017.5
20260503184938 16 225 1.6 3.2 0.00 0.00 0.00 68 1017.4
20260503184737 16 225 1.6 3.2 0.00 0.00 0.00 68 1017.5
20260503184544 16 225 1.6 3.2 0.00 0.00 0.00 68 1017.6
20260503184338 16 202 1.6 3.2 0.00 0.00 0.00 68 1017.2
20260503184137 16 248 3.2 6.4 0.00 0.00 0.00 67 1017.4
20260503183938 16 225 3.2 3.2 0.00 0.00 0.00 67 1017.3
20260503183739 16 225 3.2 6.4 0.00 0.00 0.00 67 1017.5
20260503183541 16 225 3.2 6.4 0.00 0.00 0.00 67 1017.5
20260503183338 16 225 3.2 6.4 0.00 0.00 0.00 67 1017.4
20260503183138 17 225 3.2 3.2 0.00 0.00 0.00 66 1017.4
20260503182939 17 225 3.2 6.4 0.00 0.00 0.00 66 1017.4
20260503182738 17 225 1.6 3.2 0.00 0.00 0.00 65 1017.5
20260503182139 17 180 3.2 6.4 0.00 0.00 0.00 63 1017.2
20260503181937 17 225 3.2 6.4 0.00 0.00 0.00 63 1017.4
20260503181737 17 180 1.6 3.2 0.00 0.00 0.00 62 1017.2
20260503181544 17 248 3.2 6.4 0.00 0.00 0.00 62 1017.4
20260503181336 17 202 3.2 6.4 0.00 0.00 0.00 62 1017.5
20260503181139 17 202 3.2 3.2 0.00 0.00 0.00 62 1017.3
20260503180937 17 202 3.2 6.4 0.00 0.00 0.00 62 1017.3
20260503180736 18 202 3.2 3.2 0.00 0.00 0.00 61 1017.3
20260503180542 18 180 3.2 6.4 0.00 0.00 0.00 61 1017.3
20260503180339 18 180 3.2 6.4 0.00 0.00 0.00 61 1017.2
20260503180138 18 180 3.2 6.4 0.00 0.00 0.00 61 1017.3
20260503175937 18 180 4.8 6.4 0.00 0.00 0.00 60 1017.3
20260503175543 18 202 4.8 6.4 0.00 0.00 0.00 59 1017.2
20260503175337 18 225 4.8 6.4 0.00 0.00 0.00 58 1017.2
20260503175137 18 158 6.4 11.3 0.00 0.00 0.00 58 1017.2
20260503174937 18 202 6.4 9.7 0.00 0.00 0.00 58 1017.3
20260503174739 18 135 4.8 6.4 0.00 0.00 0.00 58 1017.1
20260503174545 18 135 3.2 6.4 0.00 0.00 0.00 58 1017.3
20260503174337 18 202 4.8 6.4 0.00 0.00 0.00 57 1017.3
20260503174138 18 180 6.4 9.7 0.00 0.00 0.00 56 1017.2
20260503173937 19 180 3.2 6.4 0.00 0.00 0.00 55 1017.1
20260503173541 19 202 3.2 6.4 0.00 0.00 0.00 54 1017.2
20260503173337 19 225 3.2 6.4 0.00 0.00 0.00 55 1017.0
20260503173136 19 112 3.2 6.4 0.00 0.00 0.00 55 1017.1
20260503172937 19 158 3.2 6.4 0.00 0.00 0.00 56 1017.1
20260503172737 19 158 6.4 9.7 0.00 0.00 0.00 54 1017.3
20260503172337 20 180 4.8 6.4 0.00 0.00 0.00 54 1017.3
20260503172137 20 180 4.8 6.4 0.00 0.00 0.00 53 1017.0
20260503171937 20 158 4.8 6.4 0.00 0.00 0.00 53 1017.1
20260503171737 20 158 3.2 6.4 0.00 0.00 0.00 53 1017.1
20260503171543 20 180 8.0 11.3 0.00 0.00 0.00 53 1017.1
20260503171337 20 158 4.8 9.7 0.00 0.00 0.00 52 1016.9
20260503171137 20 202 3.2 6.4 0.00 0.00 0.00 52 1016.9
20260503170937 20 180 4.8 6.4 0.00 0.00 0.00 52 1017.2
20260503170736 20 158 3.2 6.4 0.00 0.00 0.00 51 1017.0
20260503170541 20 180 6.4 9.7 0.00 0.00 0.00 51 1017.1
20260503170139 20 158 6.4 9.7 0.00 0.00 0.00 51 1017.0
20260503160138 21 158 9.7 12.9 0.00 0.00 0.00 52 1016.6
20260503150938 22 112 8.0 12.9 0.00 0.00 0.00 48 1016.4
20260503150737 22 135 6.4 11.3 0.00 0.00 0.00 50 1016.4
20260503150540 22 202 8.0 11.3 0.00 0.00 0.00 48 1016.5
20260503150337 22 180 9.7 14.5 0.00 0.00 0.00 49 1016.3
20260503150137 22 225 6.4 9.7 0.00 0.00 0.00 48 1016.3
20260503140135 23 112 8.0 12.9 0.00 0.00 0.00 41 1016.5
20260503130937 26 315 3.2 6.4 0.00 0.00 0.00 28 1016.9
20260503130737 26 22 6.4 6.4 0.00 0.00 0.00 29 1016.9
20260503130541 26 45 8.0 17.7 0.00 0.00 0.00 29 1016.8
20260503130337 26 292 6.4 17.7 0.00 0.00 0.00 29 1016.8
20260503130138 26 315 8.0 14.5 0.00 0.00 0.00 29 1016.8
20260503120136 26 315 9.7 14.5 0.00 0.00 0.00 30 1017.1
20260503110738 25 112 3.2 9.7 0.00 0.00 0.00 32 1017.2
20260503110338 25 338 12.9 20.9 0.00 0.00 0.00 31 1017.2
20260503110137 25 0 12.9 17.7 0.00 0.00 0.00 32 1017.3
20260503090338 23 0 11.3 17.7 0.00 0.00 0.00 36 1018.0
20260503081542 21 315 14.5 25.7 0.00 0.00 0.00 39 1018.1
20260503081338 21 315 12.9 24.1 0.00 0.00 0.00 38 1018.1
20260503081137 21 270 16.1 24.1 0.00 0.00 0.00 38 1018.2
20260503080736 21 292 14.5 24.1 0.00 0.00 0.00 38 1018.2
20260503080338 21 292 19.3 24.1 0.00 0.00 0.00 39 1018.0
20260503080139 21 292 12.9 20.9 0.00 0.00 0.00 38 1018.1
20260503072937 20 292 8.0 12.9 0.00 0.00 0.00 41 1018.2
20260503072737 20 292 11.3 17.7 0.00 0.00 0.00 41 1018.3
20260503072339 20 292 12.9 17.7 0.00 0.00 0.00 41 1018.2
20260503072138 20 338 12.9 20.9 0.00 0.00 0.00 41 1018.3
20260503071939 20 292 14.5 20.9 0.00 0.00 0.00 41 1018.2
20260503071739 20 270 12.9 17.7 0.00 0.00 0.00 40 1018.1
20260503071544 20 315 17.7 25.7 0.00 0.00 0.00 40 1018.2
20260503071339 20 270 17.7 22.5 0.00 0.00 0.00 41 1018.1
20260503071137 20 292 16.1 24.1 0.00 0.00 0.00 40 1018.2
20260503070937 20 315 12.9 17.7 0.00 0.00 0.00 40 1018.4
20260503070738 20 292 11.3 14.5 0.00 0.00 0.00 41 1018.2
20260503070339 20 292 12.9 24.1 0.00 0.00 0.00 40 1018.1
20260503070136 20 315 17.7 22.5 0.00 0.00 0.00 40 1018.1
20260503060339 17 292 12.9 22.5 0.00 0.00 0.00 47 1018.2
20260503060138 17 292 12.9 22.5 0.00 0.00 0.00 47 1018.1
20260503054937 16 338 12.9 22.5 0.00 0.00 0.00 48 1018.2
20260503054544 16 292 17.7 22.5 0.00 0.00 0.00 47 1018.2
20260503054339 16 292 14.5 22.5 0.00 0.00 0.00 48 1018.2
20260503054138 16 270 17.7 22.5 0.00 0.00 0.00 47 1018.1
20260503053938 16 248 12.9 17.7 0.00 0.00 0.00 48 1018.2
20260503053738 16 270 17.7 24.1 0.00 0.00 0.00 48 1018.1
20260503053542 16 292 14.5 22.5 0.00 0.00 0.00 49 1018.3
20260503053354 15 292 16.1 22.5 0.00 0.00 0.00 49 1018.2
20260503053138 15 292 12.9 17.7 0.00 0.00 0.00 49 1018.1
20260503052936 15 270 12.9 17.7 0.00 0.00 0.00 49 1018.1
20260503052739 15 270 11.3 17.7 0.00 0.00 0.00 50 1018.2
20260503052544 15 270 9.7 17.7 0.00 0.00 0.00 51 1018.2
20260503052138 15 270 12.9 20.9 0.00 0.00 0.00 51 1018.1
20260503051939 15 270 9.7 14.5 0.00 0.00 0.00 53 1018.0
20260503051544 14 270 9.7 17.7 0.00 0.00 0.00 53 1018.1
20260503051339 14 248 12.9 20.9 0.00 0.00 0.00 52 1018.2
20260503051137 14 292 11.3 12.9 0.00 0.00 0.00 52 1018.2
20260503050938 14 292 8.0 12.9 0.00 0.00 0.00 52 1018.2
20260503050737 14 248 9.7 14.5 0.00 0.00 0.00 52 1018.2
20260503050540 14 292 11.3 14.5 0.00 0.00 0.00 52 1018.3
20260503050338 13 270 12.9 20.9 0.00 0.00 0.00 53 1018.2
20260503050138 13 292 6.4 11.3 0.00 0.00 0.00 55 1018.3
20260503045738 13 270 6.4 9.7 0.00 0.00 0.00 56 1018.0
20260503045543 13 292 8.0 12.9 0.00 0.00 0.00 56 1018.2
20260503045339 13 292 6.4 9.7 0.00 0.00 0.00 56 1018.1
20260503044938 12 315 8.0 14.5 0.00 0.00 0.00 56 1018.1
20260503044737 12 248 6.4 12.9 0.00 0.00 0.00 57 1018.1
20260503044543 12 270 6.4 6.4 0.00 0.00 0.00 57 1018.1
20260503044137 12 292 6.4 9.7 0.00 0.00 0.00 58 1018.1
20260503043938 12 292 6.4 11.3 0.00 0.00 0.00 58 1018.1
20260503043738 12 270 9.7 14.5 0.00 0.00 0.00 58 1018.2
20260503043540 11 270 6.4 6.4 0.00 0.00 0.00 60 1017.9
20260503043337 11 292 6.4 9.7 0.00 0.00 0.00 60 1018.0
20260503043136 11 270 8.0 14.5 0.00 0.00 0.00 60 1018.1
20260503042937 11 270 6.4 12.9 0.00 0.00 0.00 61 1018.0
20260503042737 11 270 8.0 17.7 0.00 0.00 0.00 61 1017.9
20260503042544 11 248 9.7 12.9 0.00 0.00 0.00 61 1017.9
20260503042339 11 292 9.7 17.7 0.00 0.00 0.00 61 1017.9
20260503042137 11 292 9.7 14.5 0.00 0.00 0.00 62 1018.0
20260503041938 11 292 8.0 12.9 0.00 0.00 0.00 62 1018.0
20260503041737 11 270 8.0 12.9 0.00 0.00 0.00 62 1017.9
20260503041545 11 292 8.0 12.9 0.00 0.00 0.00 62 1017.9
20260503041403 11 315 6.4 9.7 0.00 0.00 0.00 62 1017.9
20260503041138 11 292 8.0 12.9 0.00 0.00 0.00 62 1017.8
20260503040939 11 270 8.0 12.9 0.00 0.00 0.00 61 1018.0
20260503040739 11 315 8.0 12.9 0.00 0.00 0.00 62 1017.8
20260503040540 11 270 9.7 14.5 0.00 0.00 0.00 62 1017.9
20260503040138 11 270 8.0 12.9 0.00 0.00 0.00 62 1018.1
20260503035937 11 270 8.0 12.9 0.00 0.00 0.00 61 1018.0
20260503035738 11 270 9.7 17.7 0.00 0.00 0.00 61 1018.0
20260503035544 11 270 8.0 11.3 0.00 0.00 0.00 62 1017.9
20260503035338 11 270 9.7 17.7 0.00 0.00 0.00 62 1018.1
20260503035137 11 270 12.9 17.7 0.00 0.00 0.00 61 1018.0
20260503034937 11 270 14.5 22.5 0.00 0.00 0.00 61 1018.0
20260503034737 11 292 9.7 17.7 0.00 0.00 0.00 62 1017.9
20260503034544 11 292 11.3 14.5 0.00 0.00 0.00 62 1018.1
20260503034138 11 292 8.0 12.9 0.00 0.00 0.00 62 1017.9
20260503033739 11 292 12.9 17.7 0.00 0.00 0.00 62 1017.9
20260503033540 11 270 9.7 12.9 0.00 0.00 0.00 61 1018.0
20260503033338 11 270 9.7 14.5 0.00 0.00 0.00 61 1017.8
20260503033138 11 315 11.3 14.5 0.00 0.00 0.00 61 1018.0
20260503032938 11 270 11.3 17.7 0.00 0.00 0.00 61 1017.8
20260503032737 11 292 9.7 12.9 0.00 0.00 0.00 61 1018.0
20260503032545 11 292 11.3 14.5 0.00 0.00 0.00 60 1017.8
20260503032340 11 292 9.7 14.5 0.00 0.00 0.00 60 1017.8
20260503032138 11 315 11.3 14.5 0.00 0.00 0.00 60 1017.9
20260503031938 11 248 9.7 14.5 0.00 0.00 0.00 60 1018.0
20260503031739 11 292 8.0 14.5 0.00 0.00 0.00 60 1018.0
20260503031544 11 270 11.3 17.7 0.00 0.00 0.00 59 1018.1
20260503031339 11 292 11.3 14.5 0.00 0.00 0.00 59 1018.0
20260503031137 11 270 6.4 14.5 0.00 0.00 0.00 60 1018.2
20260503030939 11 270 11.3 17.7 0.00 0.00 0.00 59 1018.0
20260503030339 11 315 9.7 12.9 0.00 0.00 0.00 60 1018.2
20260503030138 11 270 8.0 12.9 0.00 0.00 0.00 61 1018.1
20260503025941 11 292 8.0 11.3 0.00 0.00 0.00 61 1018.2
20260503025738 11 292 8.0 11.3 0.00 0.00 0.00 61 1018.1
20260503025544 11 292 6.4 11.3 0.00 0.00 0.00 61 1018.2
20260503025339 11 270 6.4 9.7 0.00 0.00 0.00 61 1018.3
20260503025138 11 270 6.4 12.9 0.00 0.00 0.00 61 1018.1
20260503024738 11 270 6.4 11.3 0.00 0.00 0.00 61 1018.1
20260503024543 11 292 6.4 9.7 0.00 0.00 0.00 61 1018.2
20260503024341 11 248 6.4 9.7 0.00 0.00 0.00 61 1018.2
20260503024138 11 292 8.0 11.3 0.00 0.00 0.00 60 1018.1
20260503023737 11 315 6.4 11.3 0.00 0.00 0.00 60 1018.1
20260503023541 11 270 9.7 12.9 0.00 0.00 0.00 60 1018.2
20260503023340 11 292 8.0 12.9 0.00 0.00 0.00 60 1018.3
20260503022937 11 292 8.0 17.7 0.00 0.00 0.00 60 1018.2
20260503022737 11 270 9.7 14.5 0.00 0.00 0.00 60 1018.4
20260503022339 11 292 6.4 12.9 0.00 0.00 0.00 60 1018.4
20260503022138 11 292 9.7 14.5 0.00 0.00 0.00 61 1018.3